This is the latest recevied weather packets stored in our database for station/object KD9DOE. If no packets are shown the sender has not sent any weather packets the latest 10 day(s).
| Time | Temp. | Humidity | Pressure | Rain* | Wind** | Luminosity | Snow |
|---|---|---|---|---|---|---|---|
| 1777816412 | 10.56° C | 69% | 1009.7 hPa | 0 mm | - | 86 W/m² | - |
| 1777816110 | 10.56° C | 70% | 1009.6 hPa | 0 mm | - | 115 W/m² | - |
| 1777815807 | 10.56° C | 70% | 1010.1 hPa | 0 mm | - | 111 W/m² | - |
| 1777815505 | 10.56° C | 70% | 1010.4 hPa | 0 mm | - | 120 W/m² | - |
| 1777815202 | 10.56° C | 68% | 1010.2 hPa | 0 mm | - | 71 W/m² | - |
| 1777814898 | 11.11° C | 65% | 1010.1 hPa | 0 mm | - | 32 W/m² | - |
| 1777814595 | 11.11° C | 63% | 1010.2 hPa | 0 mm | - | 21 W/m² | - |
| 1777814292 | 11.11° C | 63% | 1010.3 hPa | 0 mm | - | 52 W/m² | - |
| 1777813988 | 11.11° C | 62% | 1010.4 hPa | 0 mm | - | 49 W/m² | - |
| 1777813686 | 10.56° C | 63% | 1010.3 hPa | 0 mm | - | 29 W/m² | - |
| 1777813383 | 10.56° C | 63% | 1010.5 hPa | 0 mm | - | 32 W/m² | - |
| 1777813080 | 11.11° C | 63% | 1010.8 hPa | 0 mm | - | 35 W/m² | - |
| 1777812778 | 11.11° C | 63% | 1010.8 hPa | 0 mm | - | 74 W/m² | - |
| 1777812474 | 10.56° C | 63% | 1010.9 hPa | 0 mm | - | 94 W/m² | - |
| 1777812172 | 10.56° C | 62% | 1010.7 hPa | 0 mm | - | 97 W/m² | - |
| 1777811870 | 10.56° C | 62% | 1011 hPa | 0 mm | - | 95 W/m² | - |
| 1777811569 | 10.56° C | 59% | 1011 hPa | 0 mm | - | 72 W/m² | - |
| 1777811264 | 10.56° C | 59% | 1010.9 hPa | 0 mm | - | 39 W/m² | - |
| 1777810961 | 10° C | 58% | 1011.1 hPa | 0 mm | - | 21 W/m² | - |
| 1777810658 | 10° C | 57% | 1011.1 hPa | 0 mm | - | 21 W/m² | - |
| 1777810355 | 10° C | 56% | 1011 hPa | 0 mm | - | 16 W/m² | - |
| 1777810051 | 10.56° C | 55% | 1011.1 hPa | 0 mm | - | 20 W/m² | - |
| 1777809749 | 10° C | 54% | 1010.8 hPa | 0 mm | - | 33 W/m² | - |
| 1777809446 | 10° C | 54% | 1010.7 hPa | 0 mm | - | 52 W/m² | - |
| 1777809144 | 10° C | 54% | 1010.7 hPa | 0 mm | - | 61 W/m² | - |
* Rain latest hour (hover to see other rain measurements)
** Current wind speed in m/s (hover to see current wind gust speed)